User: anonymous   Login
Location: Unspecified
(0.0000°N, 0.0000°E)
Time: 06:16:59
(UTC+00:00)
Language:

KITSAT 1 - Orbit

View from above orbital plane
View from above orbital plane
View from above satellite
View from above satellite

Ground track
Ground track

The orbit data is extracted from the following two-line orbital elements,

1 22077U 92052B   18175.58017375 -.00000057 +00000-0 +19460-4 0  9991
2 22077 066.0852 266.5159 0013429 237.5950 218.2898 12.86523461214925
Epoch (UTC): 24 June 2018 13:55:27
Eccentricity: 0.0013429
inclination: 66.0852°
perigee height: 1305 km
apogee height: 1325 km
right ascension of ascending node: 266.5159°
argument of perigee: 237.5950°
revolutions per day: 12.86523461
mean anomaly at epoch: 218.2898°
orbit number at epoch: 21492

The dashed part of the orbit path shows where the satellite is in the earth's shadow,  

DLR